Time,TemperatureF,DewpointF,PressureIn,WindDirection,WindDirectionDegrees,WindSpeedMPH,WindSpeedGustMPH,Humidity,HourlyPrecipIn,Conditions,Clouds,dailyrainin,SoftwareType,DateUTC
2013-01-04 00:03:00,35.6,34.0,30.28,South,181,1.0,3.0,95,0.00,,,0.00,weatherlink.com 1.10,2013-01-04 08:03:00,
2013-01-04 00:18:00,35.0,34.0,30.28,South,181,0.0,2.0,94,0.00,,,0.00,weatherlink.com 1.10,2013-01-04 08:18:00,
2013-01-04 00:33:00,35.3,34.0,30.28,South,181,3.0,3.0,96,0.00,,,0.00,weatherlink.com 1.10,2013-01-04 08:33:00,
2013-01-04 00:48:00,35.5,35.0,30.28,South,181,1.0,2.0,96,0.00,,,0.00,weatherlink.com 1.10,2013-01-04 08:48:00,
2013-01-04 01:03:00,35.5,34.0,30.28,South,181,2.0,3.0,95,0.00,,,0.00,weatherlink.com 1.10,2013-01-04 09:03:00,
2013-01-04 01:18:00,35.1,34.0,30.28,South,181,2.0,3.0,95,0.00,,,0.00,weatherlink.com 1.10,2013-01-04 09:18:00,
2013-01-04 01:33:00,34.7,34.0,30.28,South,181,1.0,2.0,95,0.00,,,0.00,weatherlink.com 1.10,2013-01-04 09:33:00,
2013-01-04 01:48:00,35.4,34.0,30.28,South,181,2.0,3.0,96,0.00,,,0.00,weatherlink.com 1.10,2013-01-04 09:48:00,
2013-01-04 02:03:00,35.2,34.0,30.28,South,181,3.0,3.0,96,0.00,,,0.00,weatherlink.com 1.10,2013-01-04 10:03:00,
2013-01-04 02:18:00,35.8,35.0,30.28,South,181,1.0,3.0,97,0.00,,,0.00,weatherlink.com 1.10,2013-01-04 10:18:00,
2013-01-04 02:33:00,35.7,35.0,30.28,South,181,2.0,3.0,96,0.00,,,0.00,weatherlink.com 1.10,2013-01-04 10:33:00,
2013-01-04 02:48:00,35.9,35.0,30.29,South,181,2.0,3.0,96,0.00,,,0.00,weatherlink.com 1.10,2013-01-04 10:48:00,
2013-01-04 03:03:00,35.9,35.0,30.29,South,181,1.0,2.0,97,0.00,,,0.00,weatherlink.com 1.10,2013-01-04 11:03:00,
2013-01-04 03:18:00,35.8,35.0,30.29,South,181,2.0,3.0,96,0.00,,,0.00,weatherlink.com 1.10,2013-01-04 11:18:00,
2013-01-04 03:33:00,35.8,35.0,30.28,South,181,1.0,2.0,97,0.00,,,0.00,weatherlink.com 1.10,2013-01-04 11:33:00,
2013-01-04 03:48:00,35.2,34.0,30.28,South,181,0.0,2.0,96,0.00,,,0.00,weatherlink.com 1.10,2013-01-04 11:48:00,
2013-01-04 04:03:00,35.6,35.0,30.27,South,181,0.0,2.0,98,0.00,,,0.00,weatherlink.com 1.10,2013-01-04 12:03:00,
2013-01-04 04:18:00,35.7,35.0,30.27,South,181,0.0,2.0,97,0.00,,,0.00,weatherlink.com 1.10,2013-01-04 12:18:00,
2013-01-04 04:33:00,36.2,36.0,30.28,South,181,1.0,2.0,97,0.00,,,0.00,weatherlink.com 1.10,2013-01-04 12:33:00,
2013-01-04 04:48:00,35.5,35.0,30.28,South,181,1.0,2.0,96,0.00,,,0.00,weatherlink.com 1.10,2013-01-04 12:48:00,
2013-01-04 05:18:00,35.8,35.0,30.29,South,181,1.0,3.0,98,0.00,,,0.00,weatherlink.com 1.10,2013-01-04 13:18:00,
2013-01-04 05:33:00,35.0,34.0,30.29,South,181,2.0,2.0,97,0.00,,,0.00,weatherlink.com 1.10,2013-01-04 13:33:00,
2013-01-04 05:48:00,35.0,34.0,30.29,South,181,1.0,2.0,96,0.00,,,0.00,weatherlink.com 1.10,2013-01-04 13:48:00,
2013-01-04 06:03:00,34.5,34.0,30.29,South,181,1.0,2.0,97,0.00,,,0.00,weatherlink.com 1.10,2013-01-04 14:03:00,
2013-01-04 06:18:00,33.9,33.0,30.28,South,181,1.0,2.0,97,0.00,,,0.00,weatherlink.com 1.10,2013-01-04 14:18:00,
2013-01-04 06:33:00,35.5,35.0,30.28,South,181,0.0,0.0,99,0.00,,,0.00,weatherlink.com 1.10,2013-01-04 14:33:00,
2013-01-04 06:48:00,36.3,36.0,30.28,South,181,0.0,0.0,97,0.00,,,0.00,weatherlink.com 1.10,2013-01-04 14:48:00,
2013-01-04 07:03:00,35.9,35.0,30.28,South,181,0.0,0.0,97,0.00,,,0.00,weatherlink.com 1.10,2013-01-04 15:03:00,
2013-01-04 07:18:00,35.3,34.0,30.29,South,181,0.0,0.0,96,0.00,,,0.00,weatherlink.com 1.10,2013-01-04 15:18:00,
2013-01-04 07:33:00,35.6,35.0,30.30,South,181,0.0,0.0,97,0.00,,,0.00,weatherlink.com 1.10,2013-01-04 15:33:00,
2013-01-04 07:48:00,34.8,34.0,30.30,South,181,0.0,0.0,96,0.00,,,0.00,weatherlink.com 1.10,2013-01-04 15:48:00,
2013-01-04 08:03:00,35.1,34.0,30.30,South,181,0.0,0.0,96,0.00,,,0.00,weatherlink.com 1.10,2013-01-04 16:03:00,
2013-01-04 08:18:00,36.5,36.0,30.32,South,181,0.0,0.0,97,0.00,,,0.00,weatherlink.com 1.10,2013-01-04 16:18:00,
2013-01-04 08:33:00,37.9,37.0,30.32,South,181,0.0,0.0,95,0.00,,,0.00,weatherlink.com 1.10,2013-01-04 16:33:00,
2013-01-04 08:48:00,39.0,37.0,30.31,South,181,0.0,0.0,93,0.00,,,0.00,weatherlink.com 1.10,2013-01-04 16:48:00,
2013-01-04 09:03:00,40.8,38.0,30.31,South,181,0.0,0.0,91,0.00,,,0.00,weatherlink.com 1.10,2013-01-04 17:03:00,
2013-01-04 09:19:00,45.6,41.0,30.31,South,181,0.0,0.0,85,0.00,,,0.00,weatherlink.com 1.10,2013-01-04 17:19:00,
2013-01-04 09:34:00,46.9,42.0,30.31,South,181,0.0,0.0,82,0.00,,,0.00,weatherlink.com 1.10,2013-01-04 17:34:00,
2013-01-04 09:49:00,48.4,43.0,30.32,South,181,0.0,0.0,80,0.00,,,0.00,weatherlink.com 1.10,2013-01-04 17:49:00,
2013-01-04 10:04:00,49.6,42.0,30.32,South,181,4.0,4.0,75,0.00,,,0.00,weatherlink.com 1.10,2013-01-04 18:04:00,
2013-01-04 10:19:00,50.0,42.0,30.32,South,181,4.0,5.0,74,0.00,,,0.00,weatherlink.com 1.10,2013-01-04 18:19:00,
2013-01-04 10:34:00,50.5,42.0,30.31,South,181,5.0,7.0,72,0.00,,,0.00,weatherlink.com 1.10,2013-01-04 18:34:00,
2013-01-04 10:49:00,51.2,42.0,30.31,South,181,2.0,4.0,70,0.00,,,0.00,weatherlink.com 1.10,2013-01-04 18:49:00,
2013-01-04 11:04:00,52.0,41.0,30.30,South,181,4.0,5.0,67,0.00,,,0.00,weatherlink.com 1.10,2013-01-04 19:04:00,
2013-01-04 11:19:00,51.8,43.0,30.29,South,181,4.0,5.0,71,0.00,,,0.00,weatherlink.com 1.10,2013-01-04 19:19:00,
2013-01-04 11:34:00,52.2,42.0,30.28,South,181,3.0,4.0,68,0.00,,,0.00,weatherlink.com 1.10,2013-01-04 19:34:00,
2013-01-04 11:49:00,52.0,40.0,30.27,South,181,2.0,5.0,65,0.00,,,0.00,weatherlink.com 1.10,2013-01-04 19:49:00,
2013-01-04 12:04:00,52.1,43.0,30.26,WSW,249,6.0,6.0,71,0.00,,,0.00,weatherlink.com 1.10,2013-01-04 20:04:00,
2013-01-04 12:19:00,53.0,43.0,30.25,WNW,301,1.0,5.0,68,0.00,,,0.00,weatherlink.com 1.10,2013-01-04 20:19:00,
2013-01-04 12:34:00,56.8,38.0,30.24,East,95,2.0,7.0,49,0.00,,,0.00,weatherlink.com 1.10,2013-01-04 20:34:00,
2013-01-04 12:49:00,57.7,37.0,30.23,South,174,4.0,6.0,46,0.00,,,0.00,weatherlink.com 1.10,2013-01-04 20:49:00,
2013-01-04 13:04:00,58.0,37.0,30.23,South,174,2.0,8.0,45,0.00,,,0.00,weatherlink.com 1.10,2013-01-04 21:04:00,
2013-01-04 13:19:00,58.5,38.0,30.22,South,174,4.0,9.0,46,0.00,,,0.00,weatherlink.com 1.10,2013-01-04 21:19:00,
2013-01-04 13:35:00,58.7,36.0,30.22,South,174,3.0,7.0,43,0.00,,,0.00,weatherlink.com 1.10,2013-01-04 21:35:00,
2013-01-04 13:50:00,58.8,35.0,30.21,South,174,1.0,4.0,41,0.00,,,0.00,weatherlink.com 1.10,2013-01-04 21:50:00,
2013-01-04 14:05:00,59.0,36.0,30.20,South,174,1.0,5.0,42,0.00,,,0.00,weatherlink.com 1.10,2013-01-04 22:05:00,
2013-01-04 14:20:00,59.5,36.0,30.20,South,173,1.0,6.0,42,0.00,,,0.00,weatherlink.com 1.10,2013-01-04 22:20:00,
2013-01-04 14:35:00,59.8,36.0,30.20,South,173,0.0,5.0,41,0.00,,,0.00,weatherlink.com 1.10,2013-01-04 22:35:00,
2013-01-04 14:50:00,59.9,37.0,30.20,South,174,1.0,4.0,43,0.00,,,0.00,weatherlink.com 1.10,2013-01-04 22:50:00,
2013-01-04 15:05:00,59.9,37.0,30.20,South,173,2.0,4.0,42,0.00,,,0.00,weatherlink.com 1.10,2013-01-04 23:05:00,
2013-01-04 15:20:00,59.9,37.0,30.19,South,174,1.0,3.0,42,0.00,,,0.00,weatherlink.com 1.10,2013-01-04 23:20:00,
2013-01-04 15:35:00,59.0,35.0,30.19,South,173,5.0,8.0,40,0.00,,,0.00,weatherlink.com 1.10,2013-01-04 23:35:00,
2013-01-04 15:50:00,58.5,40.0,30.20,South,173,5.0,6.0,50,0.00,,,0.00,weatherlink.com 1.10,2013-01-04 23:50:00,
2013-01-04 16:05:00,57.8,39.0,30.19,South,173,4.0,7.0,50,0.00,,,0.00,weatherlink.com 1.10,2013-01-05 00:05:00,
2013-01-04 16:20:00,57.1,41.0,30.19,South,173,1.0,6.0,55,0.00,,,0.00,weatherlink.com 1.10,2013-01-05 00:20:00,
2013-01-04 16:35:00,55.9,40.0,30.19,South,172,0.0,3.0,56,0.00,,,0.00,weatherlink.com 1.10,2013-01-05 00:35:00,
2013-01-04 16:50:00,54.0,39.0,30.19,South,173,1.0,5.0,57,0.00,,,0.00,weatherlink.com 1.10,2013-01-05 00:50:00,
2013-01-04 17:05:00,50.8,38.0,30.19,South,173,1.0,3.0,62,0.00,,,0.00,weatherlink.com 1.10,2013-01-05 01:05:00,
2013-01-04 17:20:00,48.5,38.0,30.19,South,173,0.0,2.0,67,0.00,,,0.00,weatherlink.com 1.10,2013-01-05 01:20:00,
2013-01-04 17:35:00,47.1,38.0,30.19,South,172,0.0,0.0,70,0.00,,,0.00,weatherlink.com 1.10,2013-01-05 01:35:00,
2013-01-04 17:50:00,46.0,38.0,30.20,South,173,3.0,3.0,73,0.00,,,0.00,weatherlink.com 1.10,2013-01-05 01:50:00,
2013-01-04 18:05:00,45.1,38.0,30.20,South,173,2.0,3.0,75,0.00,,,0.00,weatherlink.com 1.10,2013-01-05 02:05:00,
2013-01-04 18:20:00,44.5,38.0,30.20,South,173,1.0,3.0,77,0.00,,,0.00,weatherlink.com 1.10,2013-01-05 02:20:00,
2013-01-04 18:35:00,43.8,38.0,30.20,South,173,1.0,2.0,79,0.00,,,0.00,weatherlink.com 1.10,2013-01-05 02:35:00,
2013-01-04 18:50:00,43.5,37.0,30.20,South,172,1.0,2.0,79,0.00,,,0.00,weatherlink.com 1.10,2013-01-05 02:50:00,
2013-01-04 19:05:00,42.3,37.0,30.21,South,173,2.0,2.0,81,0.00,,,0.00,weatherlink.com 1.10,2013-01-05 03:05:00,
2013-01-04 19:20:00,41.7,37.0,30.20,South,173,1.0,1.0,83,0.00,,,0.00,weatherlink.com 1.10,2013-01-05 03:20:00,
2013-01-04 19:35:00,41.0,36.0,30.21,South,173,0.0,0.0,83,0.00,,,0.00,weatherlink.com 1.10,2013-01-05 03:35:00,
2013-01-04 19:50:00,39.8,36.0,30.21,South,173,0.0,0.0,85,0.00,,,0.00,weatherlink.com 1.10,2013-01-05 03:50:00,
2013-01-04 20:05:00,39.6,36.0,30.22,South,173,1.0,2.0,87,0.00,,,0.00,weatherlink.com 1.10,2013-01-05 04:05:00,
2013-01-04 20:20:00,39.3,36.0,30.22,South,173,0.0,1.0,86,0.00,,,0.00,weatherlink.com 1.10,2013-01-05 04:20:00,
2013-01-04 20:35:00,38.8,35.0,30.22,South,173,0.0,0.0,87,0.00,,,0.00,weatherlink.com 1.10,2013-01-05 04:35:00,
2013-01-04 20:50:00,38.6,35.0,30.22,South,173,0.0,0.0,87,0.00,,,0.00,weatherlink.com 1.10,2013-01-05 04:50:00,
2013-01-04 21:05:00,39.3,36.0,30.22,South,173,0.0,0.0,88,0.00,,,0.00,weatherlink.com 1.10,2013-01-05 05:05:00,
2013-01-04 21:20:00,38.7,36.0,30.22,South,173,0.0,0.0,88,0.00,,,0.00,weatherlink.com 1.10,2013-01-05 05:20:00,
2013-01-04 21:35:00,39.9,37.0,30.22,South,173,0.0,3.0,89,0.00,,,0.00,weatherlink.com 1.10,2013-01-05 05:35:00,
2013-01-04 21:50:00,39.3,35.0,30.23,South,173,0.0,2.0,85,0.00,,,0.00,weatherlink.com 1.10,2013-01-05 05:50:00,
2013-01-04 22:05:00,39.7,35.0,30.23,South,173,1.0,2.0,84,0.00,,,0.00,weatherlink.com 1.10,2013-01-05 06:05:00,
2013-01-04 22:20:00,41.3,37.0,30.23,South,172,0.0,4.0,83,0.00,,,0.00,weatherlink.com 1.10,2013-01-05 06:20:00,
2013-01-04 22:35:00,43.1,37.0,30.24,South,173,3.0,8.0,80,0.00,,,0.00,weatherlink.com 1.10,2013-01-05 06:35:00,
2013-01-04 22:50:00,43.0,37.0,30.24,South,172,0.0,4.0,80,0.00,,,0.00,weatherlink.com 1.10,2013-01-05 06:50:00,
2013-01-04 23:05:00,41.2,36.0,30.24,South,173,1.0,2.0,81,0.00,,,0.00,weatherlink.com 1.10,2013-01-05 07:05:00,
2013-01-04 23:20:00,40.9,36.0,30.24,South,173,0.0,2.0,83,0.00,,,0.00,weatherlink.com 1.10,2013-01-05 07:20:00,
2013-01-04 23:35:00,39.4,36.0,30.24,South,173,0.0,0.0,88,0.00,,,0.00,weatherlink.com 1.10,2013-01-05 07:35:00,
2013-01-04 23:50:00,38.5,36.0,30.23,South,173,0.0,0.0,90,0.00,,,0.00,weatherlink.com 1.10,2013-01-05 07:50:00,